Home   Weather   Ontario   Past weeks
Flag for USA

Past Weather in Ontario, California, USA — Yesterday and Last 2 Weeks

Now
59 °F

Partly cloudy.


Feels Like: 57 °F
Forecast: 62 / 54 °F
Wind: 9 mph from West

Location: Ontario International Airport

Current Time: May 21, 2019 at 12:09:11 am

Latest Report: May 20, 2019 at 10:53 pm


Visibility: 10 mi

Pressure: 29.96 "Hg

Humidity: 72%

Dew Point: 50 °F

Location of OntarioLocation

Past Weather in Ontario — Graph

°F

Ontario Temperature Yesterday

Maximum temperature yesterday: 71 °F (at 1:53 pm)
Minimum temperature yesterday: 54 °F (at 4:53 am)
Average temperature yesterday: 61 °F

High & Low Weather Summary for the Past Weeks

 TemperatureHumidityPressure
High85 °F (May 14, 2:53 pm)97% (May 7, 5:36 am)30.07 "Hg (May 7, 5:36 am)
Low54 °F (May 19, 4:33 am)30% (May 18, 2:53 pm)29.74 "Hg (May 9, 4:53 pm)
Average64 °F71%29.91 "Hg
* Reported May 5 10:53 pm — May 20 10:53 pm, Ontario. Weather by CustomWeather, © 2019

Note: Actual official high and low records may vary slightly from our data, if they occured in-between our weather recording intervals... More about our weather records

Advertising

Ontario Weather History for the Previous 24 Hours

Scroll right to see more
 ConditionsComfort  
Time TempWeatherWind HumidityBarometerVisibility
10:53 pm
Mon, May 20
59 °FPartly cloudy.9 mph72%29.96 "Hg10 mi
9:53 pm62 °FPassing clouds.12 mph56%29.96 "Hg10 mi
8:53 pm62 °FPassing clouds.14 mph58%29.94 "Hg10 mi
7:53 pm64 °FPassing clouds.14 mph50%29.91 "Hg10 mi
6:53 pm66 °FPartly sunny.15 mph45%29.89 "Hg10 mi
5:53 pm67 °FBroken clouds.14 mph44%29.89 "Hg10 mi
4:53 pm68 °FBroken clouds.16 mph42%29.89 "Hg10 mi
3:53 pm68 °FBroken clouds.14 mph44%29.89 "Hg10 mi
2:53 pm70 °FBroken clouds.8 mph41%29.89 "Hg10 mi
1:53 pm71 °FPartly sunny.10 mph35%29.88 "Hg10 mi
12:53 pm68 °FPartly sunny.7 mph40%29.89 "Hg10 mi
11:53 am65 °FPartly sunny.8 mph45%29.90 "Hg10 mi
10:53 am64 °FPartly sunny.7 mph50%29.89 "Hg10 mi
9:53 am61 °FPartly sunny.7 mph58%29.89 "Hg10 mi
8:53 am60 °FPartly sunny.6 mph65%29.88 "Hg10 mi
8:29 am59 °FPartly sunny.6 mph69%29.89 "Hg10 mi
7:53 am57 °FPartly sunny.8 mph78%29.86 "Hg10 mi
6:53 am55 °FPartly sunny.No wind87%29.85 "Hg10 mi
5:53 am55 °FPassing clouds.7 mph87%29.82 "Hg10 mi
4:53 am54 °FPassing clouds.8 mph90%29.81 "Hg10 mi
3:53 am55 °FPartly cloudy.9 mph90%29.82 "Hg10 mi
3:18 am55 °FPartly cloudy.10 mph90%29.84 "Hg10 mi
3:11 am55 °FPassing clouds.10 mph90%29.84 "Hg10 mi
3:03 am55 °FPartly cloudy.10 mph90%29.84 "Hg10 mi
2:53 am56 °FPassing clouds.9 mph87%29.82 "Hg10 mi
2:30 am56 °FMostly cloudy.6 mph90%29.84 "Hg10 mi
1:53 am56 °FPartly cloudy.10 mph87%29.82 "Hg10 mi
12:53 am56 °FPartly cloudy.12 mph90%29.84 "Hg10 mi
Weather by CustomWeather, © 2019

See weather overview